COSMOS 2084

Last updated on Thu Nov 21 2024 00:02:12 GMT+0000 (Coordinated Universal Time)

1 20663U 90055A 24325.57819879 .00006358 00000+0 46554-3 0 9994 2 20663 62.7890 147.8685 0092317 134.9039 225.9601 15.01158172865028
UTC large
Height (km)
Speed (km/s)
/
Latitude / Longitude
Inclination (degrees)
Orbital Period (minutes)
Azimuth
Elevation
Range (km)
Doppler Factor

Next 0 passes for location: London (51.5072 / 0.1276)

Sorry there are no passes over London.